Le nostre stazioni meteo in Italia

Pubblicità
Il mio iltempo24.it
Lentran, Gran Bretagna (99125): Temperatura & dewpoint: 13.04.2019 16:00:00 - 19.04.2019 16:00:00 (BST)Lentran, Gran Bretagna (99125): precipitazioni: 13.04.2019 16:00:00 - 19.04.2019 16:00:00 (BST)
Data & Tempo tt [°C] td [°C] rr [mm]
19.04.2019 16:00:00 20,6 5,1 -
19.04.2019 15:00:00 21,4 6,5 0,0
19.04.2019 14:00:00 21,5 8,2 0,0
19.04.2019 13:00:00 18,5 8,0 0,0
19.04.2019 12:00:00 15,9 6,3 0,0
19.04.2019 11:00:00 13,7 5,9 0,0
19.04.2019 10:00:00 11,3 5,9 0,0
19.04.2019 09:00:00 9,0 4,4 0,0
19.04.2019 08:00:00 7,9 4,6 0,0
19.04.2019 07:00:00 6,0 3,4 0,0
19.04.2019 06:00:00 6,4 2,5 0,0
19.04.2019 05:00:00 6,5 2,8 0,0
19.04.2019 04:00:00 6,9 3,0 0,0
19.04.2019 03:00:00 7,9 2,5 0,0
19.04.2019 02:00:00 9,1 1,8 0,0
19.04.2019 01:00:00 11,1 2,0 0,0
19.04.2019 00:00:00 11,8 2,8 0,0
18.04.2019 23:00:00 12,3 4,1 0,0
18.04.2019 22:00:00 12,8 4,8 0,0
18.04.2019 21:00:00 14,5 5,0 0,0
18.04.2019 20:00:00 15,7 4,6 0,0
18.04.2019 19:00:00 16,9 3,9 0,0
18.04.2019 18:00:00 17,3 3,9 0,0
18.04.2019 17:00:00 18,0 6,1 0,0
18.04.2019 16:00:00 18,1 6,0 0,0
18.04.2019 15:00:00 15,0 7,4 0,0
18.04.2019 14:00:00 13,4 5,3 0,0
18.04.2019 13:00:00 12,9 5,3 0,0
18.04.2019 12:00:00 11,9 4,8 0,0
18.04.2019 11:00:00 9,5 4,6 0,0
18.04.2019 10:00:00 7,8 4,0 0,0
18.04.2019 09:00:00 6,1 3,2 0,0
18.04.2019 08:00:00 5,3 2,4 0,0
18.04.2019 07:00:00 4,0 2,4 0,0
18.04.2019 06:00:00 3,4 1,5 0,0
18.04.2019 05:00:00 3,3 1,4 0,0
18.04.2019 04:00:00 3,6 1,6 0,0
18.04.2019 03:00:00 3,0 1,1 0,0
18.04.2019 02:00:00 3,5 0,7 0,0
18.04.2019 01:00:00 3,7 1,2 0,0
18.04.2019 00:00:00 4,4 1,6 0,0
17.04.2019 23:00:00 5,1 2,2 0,0
17.04.2019 22:00:00 5,8 3,1 0,0
17.04.2019 21:00:00 8,5 2,0 0,0
17.04.2019 20:00:00 11,0 2,7 0,0
17.04.2019 19:00:00 13,9 1,5 0,0
17.04.2019 18:00:00 15,6 3,6 0,0
17.04.2019 17:00:00 13,8 3,1 0,0
17.04.2019 16:00:00 14,4 3,8 0,0
17.04.2019 15:00:00 12,9 5,0 0,0
17.04.2019 14:00:00 12,2 4,8 0,0
17.04.2019 13:00:00 10,3 4,6 0,0
17.04.2019 12:00:00 8,4 4,7 0,0
17.04.2019 11:00:00 7,1 5,4 0,0
17.04.2019 10:00:00 5,8 5,1 0,0
17.04.2019 09:00:00 4,5 4,4 0,0
17.04.2019 08:00:00 4,2 4,1 0,0
17.04.2019 07:00:00 3,8 3,7 0,0
17.04.2019 06:00:00 3,7 3,6 0,2
17.04.2019 05:00:00 3,7 3,5 0,0
17.04.2019 04:00:00 4,4 4,2 0,0
17.04.2019 03:00:00 4,5 4,2 0,0
17.04.2019 02:00:00 4,6 4,1 0,0
17.04.2019 01:00:00 5,0 4,6 0,2
17.04.2019 00:00:00 5,1 4,8 0,8
16.04.2019 23:00:00 5,4 5,0 0,4
16.04.2019 22:00:00 5,7 5,2 1,0
16.04.2019 21:00:00 6,5 5,5 0,8
16.04.2019 20:00:00 8,1 6,1 0,0
16.04.2019 19:00:00 9,4 6,2 0,0
16.04.2019 18:00:00 10,1 4,7 0,0
16.04.2019 17:00:00 10,2 5,2 0,0
16.04.2019 16:00:00 10,3 3,9 0,0
16.04.2019 15:00:00 10,9 3,3 0,0
16.04.2019 14:00:00 10,9 3,8 0,0
16.04.2019 13:00:00 10,5 4,4 0,0
16.04.2019 12:00:00 10,4 4,7 0,0
16.04.2019 11:00:00 10,7 5,1 0,0
16.04.2019 10:00:00 9,7 4,8 0,0
16.04.2019 09:00:00 8,2 4,4 0,0
16.04.2019 08:00:00 7,3 3,7 0,0
16.04.2019 07:00:00 6,0 2,9 0,0
16.04.2019 06:00:00 6,6 2,9 0,0
16.04.2019 05:00:00 7,6 2,8 0,0
16.04.2019 04:00:00 7,1 2,1 0,0
16.04.2019 03:00:00 7,4 2,3 0,0
16.04.2019 02:00:00 7,3 2,0 0,0
16.04.2019 01:00:00 7,2 2,0 0,0
16.04.2019 00:00:00 6,6 1,9 0,0
15.04.2019 23:00:00 6,5 1,8 0,0
15.04.2019 22:00:00 6,7 1,6 0,0
15.04.2019 21:00:00 7,5 1,4 0,0
15.04.2019 20:00:00 8,0 0,9 0,0
15.04.2019 19:00:00 9,1 1,2 0,0
15.04.2019 18:00:00 9,4 0,5 0,0
15.04.2019 17:00:00 10,1 -0,8 0,0
15.04.2019 16:00:00 10,6 -1,2 0,0
15.04.2019 15:00:00 10,8 -1,5 0,0
15.04.2019 14:00:00 11,3 -1,6 0,0
15.04.2019 13:00:00 10,0 -2,1 0,0
15.04.2019 12:00:00 9,7 -1,5 0,0
15.04.2019 11:00:00 7,2 -0,6 0,0
15.04.2019 10:00:00 6,2 -0,8 0,0
15.04.2019 09:00:00 5,2 -1,6 0,0
15.04.2019 08:00:00 2,8 -0,1 0,0
15.04.2019 07:00:00 1,2 -1,1 0,0
15.04.2019 06:00:00 1,3 -1,4 0,0
15.04.2019 05:00:00 2,6 -0,3 0,0
15.04.2019 04:00:00 2,9 -0,2 0,0
15.04.2019 03:00:00 2,5 0,1 0,0
15.04.2019 02:00:00 2,3 -0,7 0,0
15.04.2019 01:00:00 1,4 -1,6 0,0
15.04.2019 00:00:00 2,7 -1,2 0,0
14.04.2019 23:00:00 3,1 -1,9 0,0
14.04.2019 22:00:00 4,7 -2,2 0,0
14.04.2019 21:00:00 5,0 -2,1 0,0
14.04.2019 20:00:00 6,0 -2,5 0,0
14.04.2019 19:00:00 6,8 -3,6 0,0
14.04.2019 18:00:00 7,3 -2,8 0,0
14.04.2019 17:00:00 8,5 -2,0 0,0
14.04.2019 16:00:00 9,1 -2,5 0,0
14.04.2019 15:00:00 10,0 -1,9 0,0
14.04.2019 14:00:00 9,0 -1,6 0,0
14.04.2019 13:00:00 9,2 -1,9 0,0
14.04.2019 12:00:00 8,8 -2,2 0,0
14.04.2019 11:00:00 8,0 -2,1 0,0
14.04.2019 10:00:00 7,0 -2,4 0,0
14.04.2019 09:00:00 5,3 -0,6 0,0
14.04.2019 08:00:00 1,2 -2,1 0,0
14.04.2019 07:00:00 1,0 -3,0 0,0
14.04.2019 06:00:00 0,6 -2,9 0,0
14.04.2019 05:00:00 1,5 -2,4 0,0
14.04.2019 04:00:00 0,5 -2,9 0,0
14.04.2019 03:00:00 1,2 -3,1 0,0
14.04.2019 02:00:00 2,6 -3,3 0,0
14.04.2019 01:00:00 2,1 -3,5 0,0
14.04.2019 00:00:00 2,8 -3,7 0,0
13.04.2019 23:00:00 3,1 -3,4 0,0
13.04.2019 22:00:00 3,4 -3,5 0,0
13.04.2019 21:00:00 4,3 -4,0 0,0
13.04.2019 20:00:00 5,4 -4,0 0,0
13.04.2019 19:00:00 7,2 -4,4 0,0
13.04.2019 18:00:00 8,1 -5,8 0,0
13.04.2019 17:00:00 8,9 -3,2 0,0
13.04.2019 16:00:00 9,5 -2,6 0,0

tt = Temperatura
td = dewpoint
rr = precipitazioni

Stazioni seguenti

WeatherPro
AMSI
MeteoEarth